STARLINK-11525 [DTC] (62566 NORAD) Tracking and Keplerian Element Data

This shows tracking and keplerian element data for the satellite.

Feedback or suggestion? Click here.




ElementValue
Catalog62566
NameSTARLINK-11525 [DTC]
Epoch Orbit5407
Epoch Day354.0606373
Epoch Year2025
RAAN260.3334
Inclination42.9994
Eccentricity0.0001778
Argument of Perigee254.0867
Mean Anonmoly105.9805
Mean Motion15.70805151
Decay Rate-0.00040006
L11 62566U 25006N 25354.06063730 -.00040006 00000+0 -31022-3 0 9994
L22 62566 42.9994 260.3334 0001778 254.0867 105.9805 15.70805151 54077



Live tracking and technical data element details for STARLINK-11525 [DTC] (NORAD 62566). STARLINK-11525 [DTC] can be tracked NOW for your location showing map with azimuth and elevation plus other details from your city location.







IsCatalogInMostPopularTable: catalog: 62566, numindb: 97
Update: records affected: 1



GetName: 62566 STARLINK-11525 [DTC]

Hit Count: updated at: Sun, 08 Feb 2026 07:13:08 GMT